Location: Bas-Clignon
(44.2000°N, 6.6333°E)
Time: 01:56:16
(UTC+00:00)

YAOGAN 1 - Pass Details

Date: 03 February 2023
Orbit: 616 x 618 km, 97.8° (Epoch: 27 March)

Event Time Altitude Azimuth Distance (km) Brightness Sun altitude
Rises 18:05:02 0° 158° (SSE) 2,878 5.9 -14.5°
Reaches altitude 10° 18:07:13 10° 155° (SSE) 1,978 5.0 -14.9°
Maximum altitude 18:11:29 65° 74° (ENE) 685 2.5 -15.6°
Drops below altitude 10° 18:15:46 10° 353° (N) 1,995 5.2 -16.4°
Sets 18:17:59 0° 351° (N) 2,905 6.0 -16.8°
